#datetime,building,power
2022-01-26T00:00:00,thc,10.42
2022-01-26T00:01:00,thc,11.42
2022-01-26T00:02:00,thc,10.40
2022-01-26T00:03:00,thc,11.33
2022-01-26T00:04:00,thc,10.39
2022-01-26T00:05:00,thc,9.73
2022-01-26T00:06:00,thc,10.03
2022-01-26T00:07:00,thc,9.43
2022-01-26T00:08:00,thc,9.37
2022-01-26T00:09:00,thc,9.28
2022-01-26T00:10:00,thc,9.24
2022-01-26T00:11:00,thc,10.60
2022-01-26T00:12:00,thc,10.42
2022-01-26T00:13:00,thc,10.92
2022-01-26T00:14:00,thc,10.62
2022-01-26T00:15:00,thc,10.75
2022-01-26T00:16:00,thc,11.38
2022-01-26T00:17:00,thc,11.31
2022-01-26T00:18:00,thc,12.86
2022-01-26T00:19:00,thc,10.37
2022-01-26T00:20:00,thc,10.30
2022-01-26T00:21:00,thc,10.46
2022-01-26T00:22:00,thc,10.29
2022-01-26T00:23:00,thc,11.53
2022-01-26T00:24:00,thc,10.27
2022-01-26T00:25:00,thc,10.07
2022-01-26T00:26:00,thc,10.05
2022-01-26T00:27:00,thc,9.78
2022-01-26T00:28:00,thc,8.26
2022-01-26T00:29:00,thc,9.39
2022-01-26T00:30:00,thc,7.96
2022-01-26T00:31:00,thc,8.67
2022-01-26T00:32:00,thc,8.52
2022-01-26T00:33:00,thc,13.28
2022-01-26T00:34:00,thc,13.95
2022-01-26T00:35:00,thc,15.29
2022-01-26T00:36:00,thc,15.06
2022-01-26T00:37:00,thc,14.33
2022-01-26T00:38:00,thc,14.21
2022-01-26T00:39:00,thc,15.28
2022-01-26T00:40:00,thc,11.01
2022-01-26T00:41:00,thc,13.68
2022-01-26T00:42:00,thc,13.28
2022-01-26T00:43:00,thc,10.32
2022-01-26T00:44:00,thc,14.09
2022-01-26T00:45:00,thc,9.30
2022-01-26T00:46:00,thc,13.42
2022-01-26T00:47:00,thc,13.95
2022-01-26T00:48:00,thc,11.29
2022-01-26T00:49:00,thc,14.15
2022-01-26T00:50:00,thc,14.85
2022-01-26T00:51:00,thc,10.30
2022-01-26T00:52:00,thc,14.38
2022-01-26T00:53:00,thc,9.42
2022-01-26T00:54:00,thc,17.90
2022-01-26T00:55:00,thc,19.32
2022-01-26T00:56:00,thc,13.81
2022-01-26T00:57:00,thc,17.75
2022-01-26T00:58:00,thc,17.78
2022-01-26T00:59:00,thc,13.69
2022-01-26T01:00:00,thc,17.71
2022-01-26T01:01:00,thc,17.87
2022-01-26T01:02:00,thc,13.75
2022-01-26T01:03:00,thc,16.91
2022-01-26T01:04:00,thc,12.84
2022-01-26T01:05:00,thc,16.84
2022-01-26T01:06:00,thc,17.08
2022-01-26T01:07:00,thc,13.00
2022-01-26T01:08:00,thc,18.56
2022-01-26T01:09:00,thc,17.35
2022-01-26T01:10:00,thc,14.05
2022-01-26T01:11:00,thc,19.23
2022-01-26T01:12:00,thc,15.66
2022-01-26T01:13:00,thc,18.38
2022-01-26T01:14:00,thc,20.68
2022-01-26T01:15:00,thc,10.01
2022-01-26T01:16:00,thc,19.53
2022-01-26T01:17:00,thc,15.16
2022-01-26T01:18:00,thc,19.94
2022-01-26T01:19:00,thc,20.83
2022-01-26T01:20:00,thc,17.39
2022-01-26T01:21:00,thc,20.14
2022-01-26T01:22:00,thc,16.16
2022-01-26T01:23:00,thc,15.88
2022-01-26T01:24:00,thc,18.79
2022-01-26T01:25:00,thc,14.68
2022-01-26T01:26:00,thc,19.77
2022-01-26T01:27:00,thc,17.80
2022-01-26T01:28:00,thc,14.60
2022-01-26T01:29:00,thc,18.35
2022-01-26T01:30:00,thc,14.04
2022-01-26T01:31:00,thc,14.16
2022-01-26T01:32:00,thc,14.17
2022-01-26T01:33:00,thc,14.88
2022-01-26T01:34:00,thc,13.96
2022-01-26T01:35:00,thc,12.58
2022-01-26T01:36:00,thc,16.80
2022-01-26T01:37:00,thc,16.80
2022-01-26T01:38:00,thc,16.65
2022-01-26T01:39:00,thc,16.33
2022-01-26T01:40:00,thc,13.65
2022-01-26T01:41:00,thc,17.70
2022-01-26T01:42:00,thc,15.90
2022-01-26T01:43:00,thc,15.07
2022-01-26T01:44:00,thc,15.17
2022-01-26T01:45:00,thc,10.77
2022-01-26T01:46:00,thc,14.61
2022-01-26T01:47:00,thc,13.02
2022-01-26T01:48:00,thc,12.42
2022-01-26T01:49:00,thc,8.73
2022-01-26T01:50:00,thc,12.46
2022-01-26T01:51:00,thc,12.31
2022-01-26T01:52:00,thc,13.39
2022-01-26T01:53:00,thc,9.06
2022-01-26T01:54:00,thc,8.52
2022-01-26T01:55:00,thc,9.03
2022-01-26T01:56:00,thc,8.62
2022-01-26T01:57:00,thc,8.42
2022-01-26T01:58:00,thc,7.62
2022-01-26T01:59:00,thc,7.67
2022-01-26T02:00:00,thc,7.78
2022-01-26T02:01:00,thc,7.71
2022-01-26T02:02:00,thc,8.13
2022-01-26T02:03:00,thc,10.62
2022-01-26T02:04:00,thc,9.59
2022-01-26T02:05:00,thc,9.28
2022-01-26T02:06:00,thc,9.43
2022-01-26T02:07:00,thc,10.58
2022-01-26T02:08:00,thc,10.46
2022-01-26T02:09:00,thc,11.22
2022-01-26T02:10:00,thc,8.97
2022-01-26T02:11:00,thc,8.66
2022-01-26T02:12:00,thc,8.65
2022-01-26T02:13:00,thc,8.93
2022-01-26T02:14:00,thc,8.05
2022-01-26T02:15:00,thc,7.97
2022-01-26T02:16:00,thc,7.96
2022-01-26T02:17:00,thc,8.03
2022-01-26T02:18:00,thc,7.92
2022-01-26T02:19:00,thc,7.90
2022-01-26T02:20:00,thc,7.88
2022-01-26T02:21:00,thc,7.78
2022-01-26T02:22:00,thc,7.88
2022-01-26T02:23:00,thc,7.71
2022-01-26T02:24:00,thc,8.55
2022-01-26T02:25:00,thc,8.69
2022-01-26T02:26:00,thc,8.59
2022-01-26T02:27:00,thc,9.82
2022-01-26T02:28:00,thc,8.62
2022-01-26T02:29:00,thc,8.93
2022-01-26T02:30:00,thc,9.03
2022-01-26T02:31:00,thc,9.46
2022-01-26T02:32:00,thc,9.72
2022-01-26T02:33:00,thc,11.08
2022-01-26T02:34:00,thc,11.32
2022-01-26T02:35:00,thc,10.37
2022-01-26T02:36:00,thc,10.28
2022-01-26T02:37:00,thc,9.45
2022-01-26T02:38:00,thc,10.27
2022-01-26T02:39:00,thc,10.88
2022-01-26T02:40:00,thc,8.71
2022-01-26T02:41:00,thc,8.78
2022-01-26T02:42:00,thc,8.45
2022-01-26T02:43:00,thc,8.47
2022-01-26T02:44:00,thc,7.53
2022-01-26T02:45:00,thc,7.43
2022-01-26T02:46:00,thc,8.48
2022-01-26T02:47:00,thc,8.63
2022-01-26T02:48:00,thc,8.79
2022-01-26T02:49:00,thc,8.79
2022-01-26T02:50:00,thc,8.68
2022-01-26T02:51:00,thc,8.07
2022-01-26T02:52:00,thc,8.05
2022-01-26T02:53:00,thc,7.00
2022-01-26T02:54:00,thc,6.89
2022-01-26T02:55:00,thc,7.28
2022-01-26T02:56:00,thc,7.43
2022-01-26T02:57:00,thc,7.33
2022-01-26T02:58:00,thc,7.38
2022-01-26T02:59:00,thc,7.30
2022-01-26T03:00:00,thc,8.33
2022-01-26T03:01:00,thc,7.03
2022-01-26T03:02:00,thc,7.18
2022-01-26T03:03:00,thc,8.57
2022-01-26T03:04:00,thc,8.57
2022-01-26T03:05:00,thc,8.53
2022-01-26T03:06:00,thc,9.44
2022-01-26T03:07:00,thc,10.50
2022-01-26T03:08:00,thc,9.27
2022-01-26T03:09:00,thc,10.40
2022-01-26T03:10:00,thc,9.00
2022-01-26T03:11:00,thc,8.94
2022-01-26T03:12:00,thc,8.67
2022-01-26T03:13:00,thc,8.89
2022-01-26T03:14:00,thc,8.46
2022-01-26T03:15:00,thc,8.26
2022-01-26T03:16:00,thc,7.10
2022-01-26T03:17:00,thc,7.26
2022-01-26T03:18:00,thc,7.28
2022-01-26T03:19:00,thc,7.32
2022-01-26T03:20:00,thc,8.76
2022-01-26T03:21:00,thc,8.03
2022-01-26T03:22:00,thc,10.03
2022-01-26T03:23:00,thc,9.81
2022-01-26T03:24:00,thc,9.79
2022-01-26T03:25:00,thc,8.34
2022-01-26T03:26:00,thc,9.47
2022-01-26T03:27:00,thc,8.30
2022-01-26T03:28:00,thc,8.23
2022-01-26T03:29:00,thc,8.13
2022-01-26T03:30:00,thc,7.92
2022-01-26T03:31:00,thc,9.13
2022-01-26T03:32:00,thc,10.30
2022-01-26T03:33:00,thc,9.21
2022-01-26T03:34:00,thc,10.07
2022-01-26T03:35:00,thc,9.29
2022-01-26T03:36:00,thc,9.18
2022-01-26T03:37:00,thc,9.13
2022-01-26T03:38:00,thc,8.13
2022-01-26T03:39:00,thc,9.26
2022-01-26T03:40:00,thc,8.97
2022-01-26T03:41:00,thc,8.63
2022-01-26T03:42:00,thc,7.95
2022-01-26T03:43:00,thc,9.15
2022-01-26T03:44:00,thc,7.99
2022-01-26T03:45:00,thc,7.98
2022-01-26T03:46:00,thc,7.05
2022-01-26T03:47:00,thc,7.04
2022-01-26T03:48:00,thc,7.35
2022-01-26T03:49:00,thc,7.43
2022-01-26T03:50:00,thc,6.62
2022-01-26T03:51:00,thc,6.74
2022-01-26T03:52:00,thc,7.62
2022-01-26T03:53:00,thc,7.40
2022-01-26T03:54:00,thc,8.53
2022-01-26T03:55:00,thc,7.40
2022-01-26T03:56:00,thc,7.38
2022-01-26T03:57:00,thc,7.21
2022-01-26T03:58:00,thc,7.04
2022-01-26T03:59:00,thc,6.82
2022-01-26T04:00:00,thc,7.01
2022-01-26T04:01:00,thc,6.01
2022-01-26T04:02:00,thc,6.05
2022-01-26T04:03:00,thc,6.28
2022-01-26T04:04:00,thc,8.62
2022-01-26T04:05:00,thc,7.81
2022-01-26T04:06:00,thc,7.76
2022-01-26T04:07:00,thc,7.78
2022-01-26T04:08:00,thc,9.27
2022-01-26T04:09:00,thc,8.71
2022-01-26T04:10:00,thc,8.64
2022-01-26T04:11:00,thc,9.50
2022-01-26T04:12:00,thc,10.72
2022-01-26T04:13:00,thc,9.94
2022-01-26T04:14:00,thc,11.38
2022-01-26T04:15:00,thc,10.03
2022-01-26T04:16:00,thc,9.62
2022-01-26T04:17:00,thc,9.62
2022-01-26T04:18:00,thc,9.53
2022-01-26T04:19:00,thc,10.84
2022-01-26T04:20:00,thc,10.67
2022-01-26T04:21:00,thc,8.62
2022-01-26T04:22:00,thc,8.52
2022-01-26T04:23:00,thc,8.14
2022-01-26T04:24:00,thc,8.11
2022-01-26T04:25:00,thc,7.71
2022-01-26T04:26:00,thc,7.68
2022-01-26T04:27:00,thc,8.05
2022-01-26T04:28:00,thc,7.94
2022-01-26T04:29:00,thc,7.98
2022-01-26T04:30:00,thc,8.88
2022-01-26T04:31:00,thc,9.13
2022-01-26T04:32:00,thc,9.12
2022-01-26T04:33:00,thc,9.20
2022-01-26T04:34:00,thc,11.52
2022-01-26T04:35:00,thc,10.56
2022-01-26T04:36:00,thc,10.35
2022-01-26T04:37:00,thc,11.53
2022-01-26T04:38:00,thc,11.67
2022-01-26T04:39:00,thc,11.59
2022-01-26T04:40:00,thc,12.70
2022-01-26T04:41:00,thc,9.66
2022-01-26T04:42:00,thc,9.46
2022-01-26T04:43:00,thc,8.75
2022-01-26T04:44:00,thc,8.55
2022-01-26T04:45:00,thc,7.85
2022-01-26T04:46:00,thc,8.98
2022-01-26T04:47:00,thc,7.79
2022-01-26T04:48:00,thc,7.78
2022-01-26T04:49:00,thc,8.55
2022-01-26T04:50:00,thc,8.68
2022-01-26T04:51:00,thc,9.77
2022-01-26T04:52:00,thc,8.61
2022-01-26T04:53:00,thc,8.41
2022-01-26T04:54:00,thc,8.43
2022-01-26T04:55:00,thc,7.70
2022-01-26T04:56:00,thc,8.65
2022-01-26T04:57:00,thc,8.59
2022-01-26T04:58:00,thc,10.87
2022-01-26T04:59:00,thc,9.58
2022-01-26T05:00:00,thc,9.70
2022-01-26T05:01:00,thc,10.55
2022-01-26T05:02:00,thc,10.49
2022-01-26T05:03:00,thc,11.76
2022-01-26T05:04:00,thc,10.17
2022-01-26T05:05:00,thc,10.12
2022-01-26T05:06:00,thc,10.09
2022-01-26T05:07:00,thc,10.24
2022-01-26T05:08:00,thc,10.25
2022-01-26T05:09:00,thc,11.22
2022-01-26T05:10:00,thc,9.94
2022-01-26T05:11:00,thc,9.10
2022-01-26T05:12:00,thc,9.28
2022-01-26T05:13:00,thc,9.45
2022-01-26T05:14:00,thc,8.23
2022-01-26T05:15:00,thc,8.00
2022-01-26T05:16:00,thc,9.45
2022-01-26T05:17:00,thc,8.12
2022-01-26T05:18:00,thc,8.12
2022-01-26T05:19:00,thc,8.22
2022-01-26T05:20:00,thc,8.14
2022-01-26T05:21:00,thc,9.26
2022-01-26T05:22:00,thc,8.21
2022-01-26T05:23:00,thc,10.24
2022-01-26T05:24:00,thc,9.80
2022-01-26T05:25:00,thc,9.76
2022-01-26T05:26:00,thc,8.87
2022-01-26T05:27:00,thc,9.59
2022-01-26T05:28:00,thc,8.41
2022-01-26T05:29:00,thc,8.51
2022-01-26T05:30:00,thc,7.95
2022-01-26T05:31:00,thc,7.28
2022-01-26T05:32:00,thc,8.84
2022-01-26T05:33:00,thc,8.94
2022-01-26T05:34:00,thc,9.22
2022-01-26T05:35:00,thc,8.75
2022-01-26T05:36:00,thc,7.99
2022-01-26T05:37:00,thc,8.70
2022-01-26T05:38:00,thc,8.88
2022-01-26T05:39:00,thc,9.60
2022-01-26T05:40:00,thc,7.87
2022-01-26T05:41:00,thc,8.66
2022-01-26T05:42:00,thc,9.06
2022-01-26T05:43:00,thc,10.80
2022-01-26T05:44:00,thc,10.24
2022-01-26T05:45:00,thc,11.13
2022-01-26T05:46:00,thc,10.84
2022-01-26T05:47:00,thc,11.74
2022-01-26T05:48:00,thc,11.90
2022-01-26T05:49:00,thc,10.59
2022-01-26T05:50:00,thc,8.27
2022-01-26T05:51:00,thc,9.18
2022-01-26T05:52:00,thc,8.21
2022-01-26T05:53:00,thc,7.18
2022-01-26T05:54:00,thc,6.95
2022-01-26T05:55:00,thc,6.96
2022-01-26T05:56:00,thc,6.79
2022-01-26T05:57:00,thc,6.99
2022-01-26T05:58:00,thc,7.03
2022-01-26T05:59:00,thc,7.05
2022-01-26T06:00:00,thc,7.04
2022-01-26T06:01:00,thc,8.99
2022-01-26T06:02:00,thc,8.14
2022-01-26T06:03:00,thc,9.34
2022-01-26T06:04:00,thc,9.30
2022-01-26T06:05:00,thc,9.25
2022-01-26T06:06:00,thc,9.29
2022-01-26T06:07:00,thc,9.27
2022-01-26T06:08:00,thc,9.14
2022-01-26T06:09:00,thc,9.11
2022-01-26T06:10:00,thc,8.00
2022-01-26T06:11:00,thc,7.19
2022-01-26T06:12:00,thc,7.39
2022-01-26T06:13:00,thc,7.41
2022-01-26T06:14:00,thc,7.35
2022-01-26T06:15:00,thc,7.34
2022-01-26T06:16:00,thc,7.30
2022-01-26T06:17:00,thc,9.56
2022-01-26T06:18:00,thc,7.31
2022-01-26T06:19:00,thc,7.29
2022-01-26T06:20:00,thc,8.64
2022-01-26T06:21:00,thc,7.94
2022-01-26T06:22:00,thc,8.06
2022-01-26T06:23:00,thc,8.11
2022-01-26T06:24:00,thc,10.40
2022-01-26T06:25:00,thc,9.32
2022-01-26T06:26:00,thc,8.30
2022-01-26T06:27:00,thc,8.55
2022-01-26T06:28:00,thc,8.54
2022-01-26T06:29:00,thc,9.30
2022-01-26T06:30:00,thc,9.40
2022-01-26T06:31:00,thc,9.40
2022-01-26T06:32:00,thc,8.06
2022-01-26T06:33:00,thc,8.42
2022-01-26T06:34:00,thc,7.87
2022-01-26T06:35:00,thc,7.95
2022-01-26T06:36:00,thc,7.92
2022-01-26T06:37:00,thc,9.25
2022-01-26T06:38:00,thc,6.97
2022-01-26T06:39:00,thc,7.00
2022-01-26T06:40:00,thc,6.35
2022-01-26T06:41:00,thc,6.33
2022-01-26T06:42:00,thc,6.45
2022-01-26T06:43:00,thc,6.40
2022-01-26T06:44:00,thc,6.42
2022-01-26T06:45:00,thc,7.52
2022-01-26T06:46:00,thc,7.53
2022-01-26T06:47:00,thc,8.63
2022-01-26T06:48:00,thc,7.59
2022-01-26T06:49:00,thc,7.83
2022-01-26T06:50:00,thc,8.80
2022-01-26T06:51:00,thc,8.80
2022-01-26T06:52:00,thc,8.01
2022-01-26T06:53:00,thc,8.68
2022-01-26T06:54:00,thc,8.92
2022-01-26T06:55:00,thc,9.05
2022-01-26T06:56:00,thc,9.84
2022-01-26T06:57:00,thc,10.02
2022-01-26T06:58:00,thc,8.91
2022-01-26T06:59:00,thc,8.94
2022-01-26T07:00:00,thc,8.82
2022-01-26T07:01:00,thc,8.78
2022-01-26T07:02:00,thc,7.59
2022-01-26T07:03:00,thc,7.64
2022-01-26T07:04:00,thc,6.76
2022-01-26T07:05:00,thc,6.72
2022-01-26T07:06:00,thc,6.73
2022-01-26T07:07:00,thc,8.73
2022-01-26T07:08:00,thc,8.72
2022-01-26T07:09:00,thc,8.83
2022-01-26T07:10:00,thc,8.55
2022-01-26T07:11:00,thc,7.59
2022-01-26T07:12:00,thc,7.47
2022-01-26T07:13:00,thc,7.64
2022-01-26T07:14:00,thc,7.26
2022-01-26T07:15:00,thc,6.36
2022-01-26T07:16:00,thc,7.82
2022-01-26T07:17:00,thc,7.43
2022-01-26T07:18:00,thc,7.49
2022-01-26T07:19:00,thc,7.48
2022-01-26T07:20:00,thc,7.43
2022-01-26T07:21:00,thc,7.57
2022-01-26T07:22:00,thc,8.39
2022-01-26T07:23:00,thc,7.47
2022-01-26T07:24:00,thc,7.39
2022-01-26T07:25:00,thc,8.15
2022-01-26T07:26:00,thc,8.27
2022-01-26T07:27:00,thc,8.25
2022-01-26T07:28:00,thc,9.15
2022-01-26T07:29:00,thc,9.13
2022-01-26T07:30:00,thc,7.42
2022-01-26T07:31:00,thc,7.40
2022-01-26T07:32:00,thc,7.42
2022-01-26T07:33:00,thc,7.62
2022-01-26T07:34:00,thc,7.65
2022-01-26T07:35:00,thc,7.42
2022-01-26T07:36:00,thc,6.63
2022-01-26T07:37:00,thc,6.62
2022-01-26T07:38:00,thc,6.53
2022-01-26T07:39:00,thc,7.61
2022-01-26T07:40:00,thc,7.54
2022-01-26T07:41:00,thc,6.69
2022-01-26T07:42:00,thc,8.45
2022-01-26T07:43:00,thc,7.71
2022-01-26T07:44:00,thc,7.75
2022-01-26T07:45:00,thc,7.84
2022-01-26T07:46:00,thc,7.59
2022-01-26T07:47:00,thc,8.96
2022-01-26T07:48:00,thc,8.59
2022-01-26T07:49:00,thc,9.25
2022-01-26T07:50:00,thc,8.54
2022-01-26T07:51:00,thc,8.43
2022-01-26T07:52:00,thc,8.32
2022-01-26T07:53:00,thc,7.61
2022-01-26T07:54:00,thc,7.69
2022-01-26T07:55:00,thc,7.62
2022-01-26T07:56:00,thc,7.37
2022-01-26T07:57:00,thc,5.60
2022-01-26T07:58:00,thc,5.58
2022-01-26T07:59:00,thc,5.65
2022-01-26T08:00:00,thc,5.78
2022-01-26T08:01:00,thc,5.74
2022-01-26T08:02:00,thc,5.80
2022-01-26T08:03:00,thc,5.96
2022-01-26T08:04:00,thc,5.44
2022-01-26T08:05:00,thc,6.62
2022-01-26T08:06:00,thc,6.86
2022-01-26T08:07:00,thc,7.03
2022-01-26T08:08:00,thc,8.39
2022-01-26T08:09:00,thc,8.29
2022-01-26T08:10:00,thc,9.78
2022-01-26T08:11:00,thc,9.64
2022-01-26T08:12:00,thc,9.67
2022-01-26T08:13:00,thc,8.59
2022-01-26T08:14:00,thc,7.13
2022-01-26T08:15:00,thc,7.00
2022-01-26T08:16:00,thc,7.92
2022-01-26T08:17:00,thc,7.87
2022-01-26T08:18:00,thc,8.23
2022-01-26T08:19:00,thc,7.63
2022-01-26T08:20:00,thc,7.43
2022-01-26T08:21:00,thc,8.37
2022-01-26T08:22:00,thc,8.49
2022-01-26T08:23:00,thc,8.52
2022-01-26T08:24:00,thc,8.54
2022-01-26T08:25:00,thc,7.04
2022-01-26T08:26:00,thc,6.81
2022-01-26T08:27:00,thc,7.87
2022-01-26T08:28:00,thc,7.96
2022-01-26T08:29:00,thc,7.97
2022-01-26T08:30:00,thc,8.36
2022-01-26T08:31:00,thc,9.94
2022-01-26T08:32:00,thc,10.07
2022-01-26T08:33:00,thc,9.90
2022-01-26T08:34:00,thc,9.90
2022-01-26T08:35:00,thc,8.04
2022-01-26T08:36:00,thc,9.02
2022-01-26T08:37:00,thc,8.92
2022-01-26T08:38:00,thc,6.92
2022-01-26T08:39:00,thc,6.89
2022-01-26T08:40:00,thc,6.87
2022-01-26T08:41:00,thc,6.71
2022-01-26T08:42:00,thc,9.04
2022-01-26T08:43:00,thc,7.48
2022-01-26T08:44:00,thc,6.59
2022-01-26T08:45:00,thc,6.64
2022-01-26T08:46:00,thc,6.64
2022-01-26T08:47:00,thc,6.69
2022-01-26T08:48:00,thc,7.84
2022-01-26T08:49:00,thc,7.80
2022-01-26T08:50:00,thc,8.15
2022-01-26T08:51:00,thc,6.90
2022-01-26T08:52:00,thc,7.86
2022-01-26T08:53:00,thc,7.67
2022-01-26T08:54:00,thc,9.25
2022-01-26T08:55:00,thc,11.87
2022-01-26T08:56:00,thc,11.99
2022-01-26T08:57:00,thc,9.56
2022-01-26T08:58:00,thc,9.27
2022-01-26T08:59:00,thc,9.21
2022-01-26T09:00:00,thc,8.59
2022-01-26T09:01:00,thc,6.80
2022-01-26T09:02:00,thc,7.85
2022-01-26T09:03:00,thc,7.91
2022-01-26T09:04:00,thc,7.04
2022-01-26T09:05:00,thc,6.77
2022-01-26T09:06:00,thc,6.64
2022-01-26T09:07:00,thc,6.61
2022-01-26T09:08:00,thc,6.55
2022-01-26T09:09:00,thc,6.56
2022-01-26T09:10:00,thc,6.50
2022-01-26T09:11:00,thc,7.68
2022-01-26T09:12:00,thc,7.55
2022-01-26T09:13:00,thc,8.24
2022-01-26T09:14:00,thc,9.48
2022-01-26T09:15:00,thc,8.68
2022-01-26T09:16:00,thc,11.25
2022-01-26T09:17:00,thc,10.46
2022-01-26T09:18:00,thc,10.34
2022-01-26T09:19:00,thc,9.59
2022-01-26T09:20:00,thc,9.55
2022-01-26T09:21:00,thc,8.61
2022-01-26T09:22:00,thc,9.23
2022-01-26T09:23:00,thc,9.11
2022-01-26T09:24:00,thc,8.43
2022-01-26T09:25:00,thc,11.59
2022-01-26T09:26:00,thc,7.98
2022-01-26T09:27:00,thc,6.91
2022-01-26T09:28:00,thc,6.87
2022-01-26T09:29:00,thc,6.92
2022-01-26T09:30:00,thc,8.20
2022-01-26T09:31:00,thc,6.78
2022-01-26T09:32:00,thc,7.69
2022-01-26T09:33:00,thc,7.68
2022-01-26T09:34:00,thc,7.42
2022-01-26T09:35:00,thc,8.32
2022-01-26T09:36:00,thc,8.34
2022-01-26T09:37:00,thc,6.89
2022-01-26T09:38:00,thc,7.92
2022-01-26T09:39:00,thc,8.83
2022-01-26T09:40:00,thc,8.61
2022-01-26T09:41:00,thc,6.94
2022-01-26T09:42:00,thc,8.16
2022-01-26T09:43:00,thc,8.43
2022-01-26T09:44:00,thc,9.10
2022-01-26T09:45:00,thc,7.67
2022-01-26T09:46:00,thc,6.82
2022-01-26T09:47:00,thc,5.65
2022-01-26T09:48:00,thc,6.98
2022-01-26T09:49:00,thc,6.04
2022-01-26T09:50:00,thc,7.24
2022-01-26T09:51:00,thc,4.33
2022-01-26T09:52:00,thc,7.39
2022-01-26T09:53:00,thc,5.23
2022-01-26T09:54:00,thc,5.20
2022-01-26T09:55:00,thc,5.34
2022-01-26T09:56:00,thc,6.44
2022-01-26T09:57:00,thc,5.33
2022-01-26T09:58:00,thc,4.96
2022-01-26T09:59:00,thc,5.82
2022-01-26T10:00:00,thc,4.52
2022-01-26T10:01:00,thc,3.77
2022-01-26T10:02:00,thc,3.75
2022-01-26T10:03:00,thc,4.78
2022-01-26T10:04:00,thc,5.90
2022-01-26T10:05:00,thc,4.89
2022-01-26T10:06:00,thc,4.88
2022-01-26T10:07:00,thc,6.07
2022-01-26T10:08:00,thc,5.50
2022-01-26T10:09:00,thc,6.94
2022-01-26T10:10:00,thc,4.75
2022-01-26T10:11:00,thc,4.92
2022-01-26T10:12:00,thc,5.12
2022-01-26T10:13:00,thc,6.44
2022-01-26T10:14:00,thc,6.51
2022-01-26T10:15:00,thc,6.40
2022-01-26T10:16:00,thc,7.87
2022-01-26T10:17:00,thc,6.13
2022-01-26T10:18:00,thc,8.16
2022-01-26T10:19:00,thc,6.51
2022-01-26T10:20:00,thc,7.02
2022-01-26T10:21:00,thc,5.42
2022-01-26T10:22:00,thc,4.77
2022-01-26T10:23:00,thc,5.59
2022-01-26T10:24:00,thc,6.57
2022-01-26T10:25:00,thc,5.57
2022-01-26T10:26:00,thc,5.56
2022-01-26T10:27:00,thc,5.86
2022-01-26T10:28:00,thc,5.86
2022-01-26T10:29:00,thc,5.85
2022-01-26T10:30:00,thc,6.12
2022-01-26T10:31:00,thc,4.99
2022-01-26T10:32:00,thc,4.90
2022-01-26T10:33:00,thc,4.92
2022-01-26T10:34:00,thc,3.78
2022-01-26T10:35:00,thc,4.87
2022-01-26T10:36:00,thc,5.42
2022-01-26T10:37:00,thc,4.63
2022-01-26T10:38:00,thc,4.85
2022-01-26T10:39:00,thc,5.07
2022-01-26T10:40:00,thc,4.86
2022-01-26T10:41:00,thc,4.78
2022-01-26T10:42:00,thc,5.02
2022-01-26T10:43:00,thc,5.79
2022-01-26T10:44:00,thc,5.19
2022-01-26T10:45:00,thc,6.13
2022-01-26T10:46:00,thc,5.08
2022-01-26T10:47:00,thc,5.11
2022-01-26T10:48:00,thc,6.22
2022-01-26T10:49:00,thc,5.99
2022-01-26T10:50:00,thc,7.18
2022-01-26T10:51:00,thc,6.12
2022-01-26T10:52:00,thc,5.15
2022-01-26T10:53:00,thc,5.23
2022-01-26T10:54:00,thc,5.14
2022-01-26T10:55:00,thc,5.75
2022-01-26T10:56:00,thc,4.08
2022-01-26T10:57:00,thc,4.02
2022-01-26T10:58:00,thc,4.53
2022-01-26T10:59:00,thc,4.92
2022-01-26T11:00:00,thc,5.23
2022-01-26T11:01:00,thc,5.86
2022-01-26T11:02:00,thc,5.87
2022-01-26T11:03:00,thc,5.73
2022-01-26T11:04:00,thc,5.37
2022-01-26T11:05:00,thc,4.42
2022-01-26T11:06:00,thc,4.63
2022-01-26T11:07:00,thc,4.79
2022-01-26T11:08:00,thc,4.90
2022-01-26T11:09:00,thc,4.05
2022-01-26T11:10:00,thc,5.32
2022-01-26T11:11:00,thc,5.49
2022-01-26T11:12:00,thc,6.44
2022-01-26T11:13:00,thc,7.48
2022-01-26T11:14:00,thc,7.71
2022-01-26T11:15:00,thc,8.74
2022-01-26T11:16:00,thc,10.06
2022-01-26T11:17:00,thc,9.38
2022-01-26T11:18:00,thc,7.72
2022-01-26T11:19:00,thc,7.78
2022-01-26T11:20:00,thc,8.24
2022-01-26T11:21:00,thc,7.31
2022-01-26T11:22:00,thc,7.18
2022-01-26T11:23:00,thc,6.68
2022-01-26T11:24:00,thc,6.13
2022-01-26T11:25:00,thc,5.42
2022-01-26T11:26:00,thc,4.99
2022-01-26T11:27:00,thc,4.32
2022-01-26T11:28:00,thc,4.25
2022-01-26T11:29:00,thc,4.05
2022-01-26T11:30:00,thc,4.18
2022-01-26T11:31:00,thc,3.72
2022-01-26T11:32:00,thc,3.73
2022-01-26T11:33:00,thc,4.80
2022-01-26T11:34:00,thc,4.80
2022-01-26T11:35:00,thc,4.76
2022-01-26T11:36:00,thc,4.80
2022-01-26T11:37:00,thc,4.88
2022-01-26T11:38:00,thc,6.01
2022-01-26T11:39:00,thc,4.94
2022-01-26T11:40:00,thc,5.09
2022-01-26T11:41:00,thc,5.26
2022-01-26T11:42:00,thc,3.88
2022-01-26T11:43:00,thc,5.02
2022-01-26T11:44:00,thc,6.70
2022-01-26T11:45:00,thc,6.82
2022-01-26T11:46:00,thc,6.85
2022-01-26T11:47:00,thc,6.98
2022-01-26T11:48:00,thc,6.57
2022-01-26T11:49:00,thc,7.65
2022-01-26T11:50:00,thc,6.62
2022-01-26T11:51:00,thc,4.09
2022-01-26T11:52:00,thc,4.09
2022-01-26T11:53:00,thc,4.06
2022-01-26T11:54:00,thc,4.00
2022-01-26T11:55:00,thc,6.38
2022-01-26T11:56:00,thc,5.13
2022-01-26T11:57:00,thc,5.42
2022-01-26T11:58:00,thc,5.25
2022-01-26T11:59:00,thc,5.24
2022-01-26T12:00:00,thc,5.67
2022-01-26T12:01:00,thc,5.44
2022-01-26T12:02:00,thc,6.54
2022-01-26T12:03:00,thc,4.29
2022-01-26T12:04:00,thc,3.81
2022-01-26T12:05:00,thc,3.90
2022-01-26T12:06:00,thc,4.19
2022-01-26T12:07:00,thc,4.65
2022-01-26T12:08:00,thc,5.58
2022-01-26T12:09:00,thc,5.51
2022-01-26T12:10:00,thc,5.47
2022-01-26T12:11:00,thc,5.71
2022-01-26T12:12:00,thc,7.03
2022-01-26T12:13:00,thc,5.97
2022-01-26T12:14:00,thc,5.77
2022-01-26T12:15:00,thc,10.43
2022-01-26T12:16:00,thc,9.31
2022-01-26T12:17:00,thc,11.21
2022-01-26T12:18:00,thc,11.53
2022-01-26T12:19:00,thc,5.90
2022-01-26T12:20:00,thc,10.18
2022-01-26T12:21:00,thc,11.21
2022-01-26T12:22:00,thc,7.22
2022-01-26T12:23:00,thc,11.07
2022-01-26T12:24:00,thc,10.31
2022-01-26T12:25:00,thc,5.46
2022-01-26T12:26:00,thc,9.60
2022-01-26T12:27:00,thc,9.53
2022-01-26T12:28:00,thc,4.61
2022-01-26T12:29:00,thc,4.65
2022-01-26T12:30:00,thc,5.40
2022-01-26T12:31:00,thc,5.28
2022-01-26T12:32:00,thc,9.37
2022-01-26T12:33:00,thc,10.69
2022-01-26T12:34:00,thc,5.23
2022-01-26T12:35:00,thc,6.36
2022-01-26T12:36:00,thc,5.21
2022-01-26T12:37:00,thc,4.15
2022-01-26T12:38:00,thc,5.34
2022-01-26T12:39:00,thc,10.96
2022-01-26T12:40:00,thc,11.23
2022-01-26T12:41:00,thc,9.08
2022-01-26T12:42:00,thc,9.15
2022-01-26T12:43:00,thc,6.59
2022-01-26T12:44:00,thc,6.46
2022-01-26T12:45:00,thc,5.25
2022-01-26T12:46:00,thc,4.16
2022-01-26T12:47:00,thc,9.06
2022-01-26T12:48:00,thc,11.45
2022-01-26T12:49:00,thc,5.04
2022-01-26T12:50:00,thc,5.14
2022-01-26T12:51:00,thc,5.26
2022-01-26T12:52:00,thc,5.12
2022-01-26T12:53:00,thc,6.08
2022-01-26T12:54:00,thc,6.23
2022-01-26T12:55:00,thc,4.72
2022-01-26T12:56:00,thc,8.38
2022-01-26T12:57:00,thc,9.17
2022-01-26T12:58:00,thc,6.08
2022-01-26T12:59:00,thc,5.01
2022-01-26T13:00:00,thc,6.42
2022-01-26T13:01:00,thc,7.31
2022-01-26T13:02:00,thc,8.62
2022-01-26T13:03:00,thc,9.84
2022-01-26T13:04:00,thc,12.49
2022-01-26T13:05:00,thc,13.73
2022-01-26T13:06:00,thc,9.62
2022-01-26T13:07:00,thc,9.16
2022-01-26T13:08:00,thc,10.75
2022-01-26T13:09:00,thc,8.46
2022-01-26T13:10:00,thc,7.70
2022-01-26T13:11:00,thc,6.81
2022-01-26T13:12:00,thc,7.90
2022-01-26T13:13:00,thc,6.78
2022-01-26T13:14:00,thc,7.61
2022-01-26T13:15:00,thc,7.29
2022-01-26T13:16:00,thc,7.33
2022-01-26T13:17:00,thc,6.42
2022-01-26T13:18:00,thc,7.53
2022-01-26T13:19:00,thc,7.83
2022-01-26T13:20:00,thc,6.85
2022-01-26T13:21:00,thc,8.04
2022-01-26T13:22:00,thc,8.03
2022-01-26T13:23:00,thc,6.89
2022-01-26T13:24:00,thc,8.05
2022-01-26T13:25:00,thc,8.74
2022-01-26T13:26:00,thc,7.86
2022-01-26T13:27:00,thc,9.11
2022-01-26T13:28:00,thc,8.07
2022-01-26T13:29:00,thc,7.03
2022-01-26T13:30:00,thc,8.89
2022-01-26T13:31:00,thc,7.59
2022-01-26T13:32:00,thc,5.97
2022-01-26T13:33:00,thc,7.08
2022-01-26T13:34:00,thc,6.45
2022-01-26T13:35:00,thc,5.76
2022-01-26T13:36:00,thc,7.37
2022-01-26T13:37:00,thc,8.63
2022-01-26T13:38:00,thc,5.54
2022-01-26T13:39:00,thc,5.68